This demonstration page uses our WeatherBlox Daily Observations layout. Learn more.

Left ArrowRight Arrow

Hourly Observations for January 3, 2017

Temp ( °F °C ) Dew Point ( °F °C ) Humidity (%) Winds ( mph kmh ) Pressure ( in mb ) Visibility ( mi km ) Precip ( " mm )
12:37 am 00:37 Cloudy 32 0 32 0 100 100 NW 17 28 30.06 1018 10 16 0.00 0.00
12:44 am 00:44 Cloudy 32 0 32 0 100 100 NW 17 28 30.06 1018 10 16 0.00 0.00
12:53 am 00:53 Cloudy 32 0 32 0 100 100 NW 13 20 30.06 1018 10 16 0.00 0.00
12:58 am 00:58 Cloudy 31 -0.6 31 -0.6 100 100 NW 13 20 30.04 1017 10 16 0.00 0.00
1:04 am 01:04 Cloudy 32 0 32 0 100 100 NW 15 24 30.06 1018 10 16 0.00 0.00
2:10 am 02:10 Cloudy 28 -2 28 -2 100 100 NNW 14 22 30.09 1019 10 16 0.00 0.00
3:32 am 03:32 Cloudy 25 -4 21 -6 86 86 NW 24 39 30.12 1020 10 16 0.00 0.00
3:58 am 03:58 Cloudy 22 -5.3 18 -8 82 82 NW 16 26 30.12 1020 10 16 0.00 0.00
4:25 am 04:25 Cloudy 21 -6 16 -9 80 80 NNW 21 33 30.18 1022 10 16 0.00 0.00
4:58 am 04:58 Cloudy 20 -6.5 15 -9.6 79 79 NNW 20 31 30.13 1020 10 16 0.00 0.00
5:58 am 05:58 Mostly Cloudy 19 -7 13 -10.7 75 75 NNW 17 28 30.16 1021 10 16 0.00 0.00
6:58 am 06:58 Mostly Cloudy 18 -7.6 11 -11.9 72 72 NNW 21 33 30.18 1022 10 16 0.00 0.00
8:58 am 08:58 Partly Cloudy 17 -8.4 9 -13 70 70 NNW 17 28 30.23 1024 10 16 0.00 0.00
9:58 am 09:58 Cloudy 16 -8.9 7 -13.9 67 67 NW 20 31 30.29 1026 10 16 0.00 0.00
10:58 am 10:58 Mostly Sunny 18 -7.8 8 -13.5 64 64 NNW 14 22 30.29 1026 10 16 0.00 0.00
11:58 am 11:58 Cloudy 18 -7.8 8 -13.6 63 63 NW 18 30 30.30 1026 10 16 0.00 0.00
12:58 pm 12:58 Sunny 19 -7 7 -14.1 57 57 NW 17 28 30.29 1026 10 16 0.00 0.00
1:58 pm 13:58 Mostly Cloudy 21 -6.1 7 -13.8 55 55 NNW 18 30 30.30 1026 10 16 0.00 0.00
2:58 pm 14:58 Partly Cloudy 22 -5.8 8 -13.6 55 55 NW 14 22 30.36 1028 10 16 0.00 0.00
3:58 pm 15:58 Mostly Cloudy 21 -6 7 -13.9 54 54 NW 16 26 30.34 1027 10 16 0.00 0.00
4:58 pm 16:58 Sunny 18 -7.6 6 -14.2 60 60 NNW 12 19 30.35 1028 10 16 0.00 0.00
5:58 pm 17:58 Clear 17 -8.6 5 -14.9 61 61 NW 14 22 30.36 1028 10 16 0.00 0.00
6:58 pm 18:58 Clear 15 -9.5 4 -15.5 62 62 NW 15 24 30.38 1029 10 16 0.00 0.00
7:58 pm 19:58 Clear 14 -10.1 4 -15.3 66 66 NW 16 26 30.38 1029 10 16 0.00 0.00
8:58 pm 20:58 Mostly Clear 13 -10.5 3 -16 64 64 NW 20 31 30.40 1030 10 16 0.00 0.00
9:58 pm 21:58 Mostly Clear 12 -11.1 2 -16.4 65 65 NNW 14 22 30.41 1030 10 16 0.00 0.00
10:58 pm 22:58 Clear 11 -11.9 2 -16.9 67 67 NW 15 24 30.40 1030 10 16 0.00 0.00
11:58 pm 23:58 Clear 10 -12.5 0 -18 64 64 NNW 15 24 30.41 1030 10 16 0.00 0.00

Powered by AerisWeather